Date String (YYYY-MM-DD hh:mm:ss) UTC,Instrument flags,absolute air pressure of the measurement (hPa),sample flow rate (lpm),inlet stack bypass flow (lpm),air temperature of the measurement (°C),ambient temperature measured by the external sensor (°C),aerosol sample conditioner tube jacket temperature (°C),OPC LED temperature (°C),internal box temperature (°C),relative humidity of the measurement (%),span deviation,mass concentration of particles derived from Lorenz-Mie calculation of OPC scattering (μg/m³),mass concentration of particles derived from Lorenz-Mie calculation of OPC scattering (μg/m³),mass concentration of particles derived from Lorenz-Mie calculation of OPC scattering (μg/m³)
DateTimeUTC,F1_M11,P_M11,Q1_M11,Q2_M11,T1_M11,T2_M11,T3_M11,T4_M11,T5_M11,U1_M11,ZSPAN_M11,X2_M11,X0_M11,X1_M11
2023-12-01 16:00:00,SystemResetWarning,0821.2,4.99,000.00,019.0,018.9,000.0,027.2,020.1,17.6,-000.1,0011.24,0019.13,0010.69
2023-12-01 16:01:00,SystemResetWarning,0821.2,5.01,000.00,018.9,018.7,000.0,027.2,020.0,17.7,0000.4,0011.33,0019.38,0010.76
2023-12-01 16:02:00,SystemResetWarning,0821.2,5.00,000.00,018.9,018.5,000.0,027.3,020.0,17.7,0000.1,0011.39,0018.74,0010.81
2023-12-01 16:03:00,SystemResetWarning,0821.2,5.00,000.00,018.9,018.3,000.0,027.3,020.0,17.8,0000.8,0011.45,0018.94,0010.83
2023-12-01 16:04:00,SystemResetWarning,0821.2,4.99,000.00,018.8,018.2,000.0,027.3,020.0,17.8,0001.4,0011.50,0019.18,0010.86
2023-12-01 16:05:00,SystemResetWarning,0821.2,4.99,000.00,018.8,018.1,000.0,027.3,020.0,17.9,0001.9,0011.52,0018.25,0010.88
2023-12-01 16:06:00,SystemResetWarning,0821.2,5.00,000.00,018.8,018.0,000.0,027.3,020.0,17.9,0002.2,0011.60,0017.70,0010.92
2023-12-01 16:07:00,SystemResetWarning,0821.2,5.01,000.00,018.8,018.0,000.0,027.3,020.0,18.0,0002.5,0011.64,0017.34,0010.95
2023-12-01 16:08:00,SystemResetWarning,0821.2,5.00,000.00,018.8,017.9,000.0,027.3,020.0,18.0,0002.7,0011.65,0016.77,0010.98
2023-12-01 16:09:00,SystemResetWarning,0821.2,5.00,000.00,018.8,017.8,000.0,027.3,020.0,18.0,0002.2,0011.64,0016.64,0010.98
2023-12-01 16:10:00,SystemResetWarning,0821.2,4.99,000.00,018.8,017.8,000.0,027.3,020.0,18.0,0002.1,0011.65,0016.42,0010.98
2023-12-01 16:11:00,SystemResetWarning,0821.2,5.00,000.00,018.8,017.8,000.0,027.3,020.0,18.0,0001.7,0011.67,0016.22,0010.99
2023-12-01 16:12:00,SystemResetWarning,0821.2,5.01,000.00,018.8,017.7,000.0,027.3,020.0,18.1,0001.6,0011.65,0016.04,0010.99
2023-12-01 16:13:00,SystemResetWarning,0821.3,5.01,000.00,018.7,017.7,000.0,027.3,020.0,18.1,0001.8,0011.76,0016.26,0011.11
2023-12-01 16:14:00,SystemResetWarning,0821.3,5.00,000.00,018.7,017.7,000.0,027.3,020.0,18.1,0002.0,0011.85,0016.02,0011.19
2023-12-01 16:15:00,SystemResetWarning,0821.3,4.99,000.00,018.7,017.7,000.0,027.3,020.0,18.2,0002.1,0011.93,0016.06,0011.25
2023-12-01 16:16:00,SystemResetWarning,0821.3,4.99,000.00,018.7,017.6,000.0,027.3,020.0,18.1,0001.8,0011.97,0016.19,0011.29
2023-12-01 16:17:00,SystemResetWarning,0821.3,4.99,000.00,018.7,017.6,000.0,027.3,020.0,18.2,0001.4,0011.98,0016.31,0011.32
2023-12-01 16:18:00,SystemResetWarning,0821.3,5.00,000.00,018.7,017.6,000.0,027.3,020.0,18.2,0001.2,0012.03,0016.42,0011.35
2023-12-01 16:19:00,SystemResetWarning,0821.3,5.00,000.00,018.7,017.6,000.0,027.2,020.0,18.2,0000.9,0012.03,0016.38,0011.38
2023-12-01 16:20:00,SystemResetWarning,0821.3,5.01,000.00,018.7,017.7,000.0,027.2,020.2,18.3,0001.0,0012.08,0016.48,0011.41
2023-12-01 16:21:00,SystemResetWarning,0821.3,5.01,000.00,018.9,018.5,000.0,027.2,020.7,18.1,0000.8,0012.16,0016.88,0011.47
2023-12-01 16:22:00,SystemResetWarning,0821.3,4.99,000.00,019.0,019.4,000.0,027.2,021.0,18.1,0001.2,0012.20,0017.39,0011.52
2023-12-01 16:23:00,SystemResetWarning,0821.4,4.98,000.00,019.1,019.4,000.0,027.2,020.7,18.1,0001.4,0012.23,0017.44,0011.53
2023-12-01 16:24:00,SystemResetWarning,0821.3,5.01,000.00,019.1,019.2,000.0,027.3,020.5,18.1,0001.4,0012.17,0017.30,0011.48
2023-12-01 16:25:00,SystemResetWarning,0821.4,5.01,000.00,019.0,019.0,000.0,027.3,020.3,18.1,0001.4,0012.07,0017.12,0011.40
2023-12-01 16:26:00,SystemResetWarning,0821.4,5.01,000.00,019.0,018.8,000.0,027.3,020.1,18.1,0001.7,0012.04,0017.06,0011.39
2023-12-01 16:27:00,SystemResetWarning,0821.3,4.99,000.00,018.9,018.6,000.0,027.3,020.0,18.2,0001.5,0012.06,0016.91,0011.39
2023-12-01 16:28:00,SystemResetWarning,0821.4,4.99,000.00,018.9,018.5,000.0,027.3,020.0,18.2,0001.4,0012.09,0016.98,0011.40
2023-12-01 16:29:00,SystemResetWarning,0821.3,5.01,000.00,018.9,018.3,000.0,027.3,020.0,18.2,0001.1,0012.08,0017.13,0011.41
2023-12-01 16:30:00,SystemResetWarning,0821.3,5.01,000.00,018.9,018.2,000.0,027.3,020.0,18.2,0001.0,0012.07,0017.08,0011.43
2023-12-01 16:31:00,SystemResetWarning,0821.3,5.00,000.00,018.8,018.2,000.0,027.3,020.0,18.3,0000.7,0012.07,0017.24,0011.43
2023-12-01 16:32:00,SystemResetWarning,0821.3,4.99,000.00,018.8,018.1,000.0,027.3,020.0,18.3,0000.5,0012.05,0017.85,0011.42
2023-12-01 16:33:00,SystemResetWarning,0821.3,4.99,000.00,018.8,018.0,000.0,027.3,020.0,18.3,0000.8,0012.03,0017.35,0011.40
2023-12-01 16:34:00,SystemResetWarning,0821.4,5.01,000.00,018.8,018.0,000.0,027.3,020.0,18.3,-000.1,0012.01,0017.22,0011.38
2023-12-01 16:35:00,SystemResetWarning,0821.4,5.00,000.00,018.8,017.9,000.0,027.3,020.0,18.3,-000.1,0012.00,0017.19,0011.37
2023-12-01 16:36:00,SystemResetWarning,0821.3,5.00,000.00,018.8,017.9,000.0,027.3,020.0,18.4,-000.1,0012.01,0017.32,0011.35
2023-12-01 16:37:00,SystemResetWarning,0821.3,5.00,000.00,018.8,017.8,000.0,027.3,020.0,18.4,-000.8,0011.96,0017.19,0011.33
2023-12-01 16:38:00,SystemResetWarning,0821.3,5.00,000.00,018.8,017.8,000.0,027.3,020.0,18.5,-000.5,0011.90,0016.97,0011.32
2023-12-01 16:39:00,SystemResetWarning,0821.4,5.00,000.00,018.8,017.8,000.0,027.3,020.0,18.5,-000.1,0011.90,0017.02,0011.31
2023-12-01 16:40:00,SystemResetWarning,0821.3,5.00,000.00,018.8,017.7,000.0,027.3,020.0,18.6,0000.2,0011.88,0016.70,0011.30
2023-12-01 16:41:00,SystemResetWarning,0821.3,5.00,000.00,018.8,017.7,000.0,027.2,020.0,18.6,0000.1,0011.90,0016.70,0011.29
2023-12-01 16:42:00,SystemResetWarning,0821.3,5.00,000.00,018.8,017.7,000.0,027.2,020.0,18.6,0000.6,0011.94,0016.73,0011.32
2023-12-01 16:43:00,SystemResetWarning,0821.4,5.00,000.00,018.7,017.7,000.0,027.2,020.0,18.5,0000.7,0011.98,0016.12,0011.35
2023-12-01 16:44:00,SystemResetWarning,0821.3,5.00,000.00,018.7,017.7,000.0,027.2,020.0,18.6,0000.7,0011.99,0016.04,0011.36
2023-12-01 16:45:00,SystemResetWarning,0821.3,5.00,000.00,018.7,017.6,000.0,027.2,020.0,18.7,0001.1,0011.99,0016.35,0011.36
2023-12-01 16:46:00,SystemResetWarning,0821.3,4.99,000.00,018.7,017.6,000.0,027.2,020.0,18.8,0001.3,0012.01,0016.78,0011.38
2023-12-01 16:47:00,SystemResetWarning,0821.4,4.99,000.00,018.7,017.6,000.0,027.2,020.0,18.8,0001.1,0012.01,0016.71,0011.40
2023-12-01 16:48:00,SystemResetWarning,0821.4,5.00,000.00,018.7,017.6,000.0,027.2,020.0,18.8,0001.2,0012.00,0017.32,0011.42
2023-12-01 16:49:00,SystemResetWarning,0821.3,5.00,000.00,018.7,017.6,000.0,027.2,020.0,18.7,0000.8,0012.03,0017.57,0011.44
2023-12-01 16:50:00,SystemResetWarning,0821.3,5.00,000.00,018.7,017.6,000.0,027.2,020.0,18.7,0000.6,0012.07,0017.57,0011.47
2023-12-01 16:51:00,SystemResetWarning,0821.3,5.00,000.00,018.7,017.6,000.0,027.2,020.0,18.6,0001.2,0012.10,0017.55,0011.51
2023-12-01 16:52:00,SystemResetWarning,0821.3,5.00,000.00,018.7,017.6,000.0,027.2,020.0,18.5,0001.7,0012.16,0017.78,0011.53
2023-12-01 16:53:00,SystemResetWarning,0821.3,5.00,000.00,018.7,017.5,000.0,027.2,020.0,18.5,0001.5,0012.16,0017.76,0011.54
2023-12-01 16:54:00,SystemResetWarning,0821.3,5.00,000.00,018.7,017.5,000.0,027.2,020.0,18.5,0001.5,0012.20,0017.80,0011.56
2023-12-01 16:55:00,SystemResetWarning,0821.3,5.00,000.00,018.7,017.6,000.0,027.2,020.1,18.5,0001.8,0012.23,0017.80,0011.60
2023-12-01 16:56:00,SystemResetWarning,0821.3,5.01,000.00,018.8,018.2,000.0,027.2,020.6,18.4,0002.1,0012.30,0017.78,0011.65
2023-12-01 16:57:00,SystemResetWarning,0821.3,5.00,000.00,019.0,019.1,000.0,027.2,020.9,18.2,0002.3,0012.36,0017.22,0011.70
2023-12-01 16:58:00,SystemResetWarning,0821.3,4.99,000.00,019.1,019.2,000.0,027.2,020.8,18.2,0002.4,0012.44,0017.39,0011.74
2023-12-01 16:59:00,SystemResetWarning,0821.3,5.00,000.00,019.1,019.0,000.0,027.2,020.5,18.3,0002.6,0012.48,0017.18,0011.77
